This is the latest recevied weather packets stored in our database for station/object KK7KHO. If no packets are shown the sender has not sent any weather packets the latest 10 day(s).
| Time | Temp. | Humidity | Pressure | Rain* | Wind** | Luminosity | Snow |
|---|---|---|---|---|---|---|---|
| 1777435231 | 10° C | 89% | 1023.5 hPa | 0 mm | - | 0 W/m² | - |
| 1777434930 | 10° C | 89% | 1023.5 hPa | 0 mm | - | 0 W/m² | - |
| 1777434626 | 10° C | 89% | 1023.2 hPa | 0 mm | - | 0 W/m² | - |
| 1777434321 | 10° C | 89% | 1023.2 hPa | 0 mm | - | 0 W/m² | - |
| 1777434019 | 10.56° C | 89% | 1023.3 hPa | 0 mm | - | 0 W/m² | - |
| 1777433715 | 10.56° C | 88% | 1023.1 hPa | 0 mm | - | 1 W/m² | - |
| 1777433411 | 10.56° C | 87% | 1023.1 hPa | 0 mm | - | 1 W/m² | - |
| 1777433107 | 11.11° C | 87% | 1023 hPa | 0 mm | - | 2 W/m² | - |
| 1777432803 | 11.11° C | 86% | 1022.9 hPa | 0 mm | - | 3 W/m² | - |
| 1777432499 | 11.67° C | 85% | 1022.8 hPa | 0 mm | - | 5 W/m² | - |
| 1777432195 | 11.67° C | 85% | 1023.1 hPa | 0 mm | - | 7 W/m² | - |
| 1777431894 | 11.67° C | 84% | 1022.8 hPa | 0 mm | - | 8 W/m² | - |
| 1777431591 | 12.22° C | 83% | 1022.8 hPa | 0 mm | - | 11 W/m² | - |
| 1777431286 | 12.22° C | 82% | 1022.8 hPa | 0 mm | - | 14 W/m² | - |
| 1777430982 | 12.22° C | 81% | 1022.9 hPa | 0 mm | - | 17 W/m² | - |
| 1777430678 | 12.78° C | 82% | 1022.8 hPa | 0 mm | - | 21 W/m² | - |
| 1777430374 | 12.78° C | 81% | 1022.6 hPa | 0 mm | - | 24 W/m² | - |
| 1777430069 | 12.22° C | 81% | 1022.7 hPa | 0 mm | - | 26 W/m² | - |
| 1777429766 | 12.22° C | 82% | 1022.8 hPa | 0 mm | - | 29 W/m² | - |
| 1777429462 | 12.22° C | 81% | 1022.8 hPa | 0 mm | - | 34 W/m² | - |
| 1777429158 | 12.22° C | 83% | 1022.9 hPa | 0 mm | - | 37 W/m² | - |
| 1777428855 | 12.22° C | 83% | 1022.8 hPa | 0 mm | - | 51 W/m² | - |
| 1777428551 | 12.22° C | 83% | 1022.9 hPa | 0 mm | - | 37 W/m² | - |
| 1777428247 | 12.78° C | 83% | 1022.9 hPa | 0 mm | - | 39 W/m² | - |
| 1777427941 | 12.22° C | 82% | 1023 hPa | 0 mm | - | 48 W/m² | - |
* Rain latest hour (hover to see other rain measurements)
** Current wind speed in m/s (hover to see current wind gust speed)